TimeEEST,TemperatureF,Dew PointF,Humidity,Sea Level PressureIn,VisibilityMPH,Wind Direction,Wind SpeedMPH,Gust SpeedMPH,PrecipitationIn,Events,Conditions,WindDirDegrees,DateUTC
12:50 AM,69.8,55.4,60,29.92,-9999.0,North,2.3,-,N/A,,Clear,10,2012-10-04 21:50:00
1:50 AM,68.0,57.2,68,29.92,-9999.0,NNW,5.8,-,N/A,,Clear,330,2012-10-04 22:50:00
2:50 AM,68.0,55.4,64,29.92,-9999.0,NW,4.6,-,N/A,,Clear,320,2012-10-04 23:50:00
3:50 AM,66.2,55.4,68,29.92,-9999.0,Variable,2.3,-,N/A,,Clear,0,2012-10-05 00:50:00
4:50 AM,64.4,55.4,73,29.92,-9999.0,Calm,Calm,-,N/A,,Clear,0,2012-10-05 01:50:00
5:50 AM,66.2,57.2,73,29.95,-9999.0,Calm,Calm,-,N/A,,Clear,0,2012-10-05 02:50:00
6:20 AM,68.0,57.2,68,29.95,-9999.0,Calm,Calm,-,N/A,,Clear,0,2012-10-05 03:20:00
6:50 AM,64.4,55.4,73,29.95,-9999.0,Calm,Calm,-,N/A,,Clear,0,2012-10-05 03:50:00
7:20 AM,66.2,57.2,73,29.92,-9999.0,Calm,Calm,-,N/A,,Clear,0,2012-10-05 04:20:00
7:50 AM,68.0,55.4,64,29.95,-9999.0,Calm,Calm,-,N/A,,Clear,0,2012-10-05 04:50:00
8:20 AM,68.0,57.2,68,29.95,-9999.0,Calm,Calm,-,N/A,,Clear,0,2012-10-05 05:20:00
8:50 AM,71.6,57.2,60,29.98,-9999.0,Variable,1.2,-,N/A,,Clear,0,2012-10-05 05:50:00
9:20 AM,75.2,55.4,50,29.98,-9999.0,Calm,Calm,-,N/A,,Clear,0,2012-10-05 06:20:00
9:50 AM,77.0,55.4,47,29.95,-9999.0,NW,5.8,-,N/A,,Clear,320,2012-10-05 06:50:00
10:20 AM,78.8,53.6,42,29.98,-9999.0,Calm,Calm,-,N/A,,Clear,0,2012-10-05 07:20:00
10:50 AM,82.4,51.8,35,29.98,-9999.0,Variable,3.5,-,N/A,,Clear,0,2012-10-05 07:50:00
11:20 AM,82.4,50.0,32,29.95,-9999.0,NNW,6.9,-,N/A,,Clear,340,2012-10-05 08:20:00
11:50 AM,84.2,48.2,29,29.98,-9999.0,NNW,10.4,-,N/A,,Clear,330,2012-10-05 08:50:00
12:20 PM,84.2,48.2,29,29.98,-9999.0,North,8.1,-,N/A,,Clear,360,2012-10-05 09:20:00
12:50 PM,84.2,48.2,29,29.98,6.2,NNW,8.1,-,N/A,,Partly Cloudy,330,2012-10-05 09:50:00
1:20 PM,84.2,46.4,27,29.98,6.2,North,9.2,-,N/A,,Partly Cloudy,360,2012-10-05 10:20:00
1:50 PM,86.0,46.4,25,29.95,6.2,NNW,11.5,-,N/A,,Partly Cloudy,340,2012-10-05 10:50:00
2:20 PM,86.0,46.4,25,29.95,6.2,NNW,9.2,-,N/A,,Partly Cloudy,340,2012-10-05 11:20:00
2:50 PM,86.0,44.6,23,29.95,6.2,NNW,11.5,-,N/A,,Scattered Clouds,330,2012-10-05 11:50:00
3:20 PM,86.0,44.6,23,29.95,6.2,North,9.2,-,N/A,,Scattered Clouds,350,2012-10-05 12:20:00
3:50 PM,86.0,46.4,25,29.95,6.2,NNW,10.4,-,N/A,,Scattered Clouds,340,2012-10-05 12:50:00
4:20 PM,86.0,48.2,27,29.95,6.2,NNW,11.5,-,N/A,,Scattered Clouds,340,2012-10-05 13:20:00
4:50 PM,86.0,48.2,27,29.95,6.2,North,10.4,-,N/A,,Scattered Clouds,350,2012-10-05 13:50:00
5:20 PM,84.2,50.0,30,29.95,6.2,North,8.1,-,N/A,,Scattered Clouds,360,2012-10-05 14:20:00
5:50 PM,84.2,48.2,29,29.95,6.2,North,9.2,-,N/A,,Scattered Clouds,360,2012-10-05 14:50:00
6:20 PM,82.4,50.0,32,29.95,6.2,North,5.8,-,N/A,,Partly Cloudy,10,2012-10-05 15:20:00
6:50 PM,82.4,50.0,32,29.98,6.2,North,6.9,-,N/A,,Partly Cloudy,360,2012-10-05 15:50:00
7:20 PM,78.8,48.2,34,29.98,6.2,North,4.6,-,N/A,,Partly Cloudy,360,2012-10-05 16:20:00
7:50 PM,77.0,50.0,39,30.01,6.2,NNW,5.8,-,N/A,,Partly Cloudy,330,2012-10-05 16:50:00
8:20 PM,77.0,51.8,41,30.01,6.2,NNW,4.6,-,N/A,,Partly Cloudy,340,2012-10-05 17:20:00
8:50 PM,75.2,51.8,44,30.01,6.2,NW,4.6,-,N/A,,Partly Cloudy,310,2012-10-05 17:50:00
9:20 PM,75.2,48.2,38,30.04,-9999.0,West,4.6,-,N/A,,Clear,280,2012-10-05 18:20:00
9:50 PM,73.4,50.0,44,30.04,-9999.0,West,4.6,-,N/A,,Clear,280,2012-10-05 18:50:00
10:20 PM,71.6,51.8,50,30.04,-9999.0,Calm,Calm,-,N/A,,Clear,0,2012-10-05 19:20:00
10:50 PM,69.8,51.8,53,30.04,-9999.0,NNW,6.9,-,N/A,,Clear,330,2012-10-05 19:50:00
11:20 PM,69.8,51.8,53,30.04,-9999.0,North,10.4,-,N/A,,Clear,350,2012-10-05 20:20:00
11:50 PM,69.8,51.8,53,30.04,-9999.0,NNW,11.5,-,N/A,,Clear,340,2012-10-05 20:50:00